This demonstration page uses our WeatherBlox Daily Observations layout. Learn more.

41.86663, -103.66717

Hourly Observations for December 30, 2019

Temp ( °F °C ) Dew Point ( °F °C ) Humidity (%) Winds ( mph kmh ) Pressure ( in mb ) Visibility ( mi km ) Precip ( " mm )
12:53 am 00:53 Clear 22 -5.6 12 -11.1 66 66 WNW 20 31 30.06 1018 10 16.0934 0 0
1:53 am 01:53 Clear 23 -5 11 -11.7 60 60 WNW 17 28 30.09 1019 10 16.0934 0 0
2:53 am 02:53 Clear 19 -7.2 10 -12.2 68 68 WNW 15 24 30.1 1019 10 16.0934 0 0
3:53 am 03:53 Clear 19 -7.2 9 -12.8 65 65 WNW 18 30 30.12 1020 10 16.0934 0 0
4:53 am 04:53 Clear 19 -7.2 8 -13.3 62 62 WNW 14 22 30.14 1021 10 16.0934 0 0
5:53 am 05:53 Clear 18 -7.8 7 -13.9 62 62 WNW 16 26 30.16 1022 10 16.0934 0 0
6:53 am 06:53 Clear 17 -8.3 7 -13.9 64 64 W 12 19 30.19 1022 10 16.0934 0 0
7:53 am 07:53 Sunny 17 -8.3 7 -13.9 64 64 WNW 14 22 30.21 1023 10 16.0934 0 0
8:53 am 08:53 Sunny 21 -6.1 9 -12.8 59 59 W 12 19 30.24 1024 10 16.0934 0 0
9:53 am 09:53 Sunny 25 -3.9 11 -11.7 55 55 WNW 16 26 30.25 1024 10 16.0934 0 0
10:53 am 10:53 Sunny 27 -2.8 12 -11.1 53 53 WNW 20 31 30.23 1024 10 16.0934 0 0
11:53 am 11:53 Sunny 29 -1.7 13 -10.6 51 51 WNW 22 35 30.21 1023 10 16.0934 0 0
12:53 pm 12:53 Sunny 30 -1.1 13 -10.6 49 49 WNW 18 30 30.18 1022 10 16.0934 0 0
1:53 pm 13:53 Sunny 31 -0.6 14 -10 49 49 WNW 16 26 30.17 1022 10 16.0934 0 0
2:53 pm 14:53 Sunny 31 -0.6 15 -9.4 52 52 WNW 10 17 30.19 1022 10 16.0934 0 0
3:53 pm 15:53 Sunny 29 -1.7 16 -8.9 58 58 WNW 9 15 30.2 1023 10 16.0934 0 0
4:53 pm 16:53 Clear 26 -3.3 14 -10 60 60 WNW 14 22 30.2 1023 10 16.0934 0 0
5:53 pm 17:53 Clear 23 -5 13 -10.6 65 65 WNW 12 19 30.22 1024 10 16.0934 0 0
6:53 pm 18:53 Clear 21 -6.1 12 -11.1 68 68 WNW 13 20 30.25 1024 10 16.0934 0 0
7:53 pm 19:53 Clear 20 -6.7 11 -11.7 68 68 WNW 14 22 30.24 1024 10 16.0934 0 0
8:53 pm 20:53 Mostly Clear 19 -7.2 10 -12.2 68 68 WNW 9 15 30.23 1024 10 16.0934 0 0
9:53 pm 21:53 Partly Cloudy 18 -7.8 11 -11.7 74 74 WNW 8 13 30.22 1023 10 16.0934 0 0
10:53 pm 22:53 Mostly Cloudy 17 -8.3 10 -12.2 74 74 NW 10 17 30.22 1023 10 16.0934 0 0
11:53 pm 23:53 Clear 14 -10 9 -12.8 80 80 NW 8 13 30.2 1023 10 16.0934 0 0

Powered by AerisWeather